Weather History for Meadville, PA

Change the Weather History Date:

Wednesday, September 25, 2013

  Actual Average Record
Temperature  
Mean Temperature 57 °F -  
Max Temperature 70 °F 66 °F 88 °F (1961)
Min Temperature 44 °F 43 °F 30 °F (1974)
Degree Days  
Heating Degree Days 8    
Growing Degree Days 7 (Base 50)    
Moisture  
Dew Point 48 °F    
Average Humidity 68    
Maximum Humidity 89    
Minimum Humidity 42    
Precipitation  
Precipitation 0.00 in - - ()
Sea Level Pressure  
Sea Level Pressure 29.98 in    
Wind  
Wind Speed 4 mph (ENE)    
Max Wind Speed 8 mph    
Max Gust Speed -    
Visibility 10 miles    
Events      
Averages and records for this station are not official NWS values.
T = Trace of Precipitation, MM = Missing Value Source: NWS Daily Summary

Daily Weather History Graph

Daily Weather History Graph

Search for Another Location

Airport:

Trip Planner

Search our weather history database for the weather conditions in past years. The results will help you decide how hot, cold, wet, or windy it might be!

Date:

Astronomy

Sep. 25, 2013 Rise Set
Actual Time 7:11 AM EDT 7:12 PM EDT
Civil Twilight 6:43 AM EDT 7:40 PM EDT
Nautical Twilight 6:11 AM EDT 8:12 PM EDT
Astronomical Twilight 5:38 AM EDT 8:45 PM EDT
Moon 11:13 PM EDT (9/25) 1:20 PM EDT (9/25)
Length of Visible Light 12h 56m
Length of Day
12h 00m
Waning Gibbous, 64% of the Moon is Illuminated
Sep 25
Waning Gibbous
Sep 26
Last Quarter
Oct 4
New
Oct 11
First Quarter
Oct 18
Full

Hourly Weather History & Observations

Time (EDT) Temp. Windchill Dew Point Humidity Pressure Visibility Wind Dir Wind Speed Gust Speed Precip Events Conditions
12:53 AM 46.0 °F - - N/A% 30.02 in 10.0 mi Calm Calm - N/A   Clear
1:53 AM 46.0 °F 44.8 °F - N/A% 30.01 in 10.0 mi East 3.5 mph - N/A   Clear
2:53 AM 44.1 °F 42.5 °F - N/A% 29.99 in 10.0 mi NE 3.5 mph - N/A   Clear
3:53 AM 50.0 °F - - N/A% 29.97 in 10.0 mi East 5.8 mph - N/A   Clear
4:53 AM 48.9 °F - - N/A% 29.97 in 10.0 mi East 5.8 mph - N/A   Clear
5:53 AM 48.9 °F - - N/A% 29.97 in 10.0 mi East 6.9 mph - N/A   Clear
6:53 AM 48.9 °F - - N/A% 29.98 in 10.0 mi East 4.6 mph - N/A   Clear
7:53 AM 48.0 °F - - N/A% 29.99 in 10.0 mi East 4.6 mph - N/A   Clear
8:53 AM 52.0 °F - - N/A% 30.00 in 10.0 mi East 5.8 mph - N/A   Clear
9:53 AM 53.1 °F - - N/A% 30.00 in 10.0 mi East 4.6 mph - N/A   Clear
10:53 AM 57.0 °F - - N/A% 30.00 in 10.0 mi East 5.8 mph - N/A   Clear
11:53 AM 61.0 °F - - N/A% 30.00 in 10.0 mi East 3.5 mph - N/A   Clear
12:53 PM 64.0 °F - - N/A% 29.99 in 10.0 mi Variable 3.5 mph - N/A   Clear
1:53 PM 66.0 °F - - N/A% 29.97 in 10.0 mi East 4.6 mph - N/A   Clear
2:53 PM 66.9 °F - - N/A% 29.96 in 10.0 mi NE 4.6 mph - N/A   Clear
3:53 PM 70.0 °F - 46.0 °F 42% 29.94 in 10.0 mi NNE 5.8 mph - N/A   Clear
4:53 PM 70.0 °F - 46.0 °F 42% 29.93 in 10.0 mi NNE 8.1 mph - N/A   Clear
5:53 PM 68.0 °F - 46.9 °F 47% 29.94 in 10.0 mi NNE 4.6 mph - N/A   Clear
6:53 PM 61.0 °F - 44.1 °F 54% 29.95 in 10.0 mi NNE 5.8 mph - N/A   Clear
7:53 PM 57.9 °F - 50.0 °F 75% 29.96 in 10.0 mi NNE 4.6 mph - N/A   Clear
8:53 PM 55.9 °F - 51.1 °F 84% 29.97 in 10.0 mi NNE 6.9 mph - N/A   Clear
9:53 PM 53.1 °F - 50.0 °F 89% 29.98 in 10.0 mi NNE 6.9 mph - N/A   Clear
10:53 PM 52.0 °F - 48.0 °F 86% 29.99 in 10.0 mi NE 6.9 mph - N/A   Clear
11:53 PM 52.0 °F - 48.9 °F 89% 29.99 in 10.0 mi NE 4.6 mph - N/A   Clear